Showing default

SHIYAN 10 (SY-10), 49258

Orbit data source: Space-Track

SHIYAN 10 (SY-10), 49258 is a payload satellite owned by SAST (CN) in HEO that was launched on Mon, 27 Sep 2021 UTC via a CHANG ZHENG 3B launch vehicle from the Xichang Space Center, China (XSC). Payload-class satellites include a variety of spacecraft equipped with specific instruments for various scientific and technological missions. These include communications satellites like Starlink; space stations such as the ISS; scientific satellites like the Hubble; Earth observation satellites from companies like Planet Labs, Umbra, and HawkEye 360; GPS; miniature CubeSats for education and research; and military/defense satellites.

Loading next visibility...
Identifier
49258, 2021-087A
Orbit
HEO
Country
Flag of CNCN / PRC
Related business
Manufacturer
SAST
Mission
Operational Civil Tech/Early Warn
Bus & Motor
SY10?, DFH-4 LAE
Mass
~4,600 kg wet, ~2,500 kg dry
Launch date (UTC)
2021-09-27 (5 years ago)
Launch vehicle
CHANG ZHENG 3B
Launch site
Xichang Space Center, China (XSC)
Object type
Payload
Rocket body
Debris
Shape & HBR
Box + 2 Pan, 15.0 m
Radar Cross Section
34.063 m², Large (>1 m²)

Expand to show TLE details & history
Last TLE update: 2 weeks ago

TLE from 2 weeks ago
0 SHIYAN 10 (SY-10)
1 49258U 21087A   26159.42816681  .00000790  00000-0  00000-0 0  9991
2 49258  63.1127 221.0467 6930785 269.8654  17.6440  2.00652330 34358
Epoch: 2026-06-08T10:16Z
TLE epoch observation values (Epoch: 2026-06-08T10:16:33.612Z)
Latitude
0.00001°
Longitude
170.10117°
Altitude
7,474.18 km
Speed
6.523 km/s
True Right ascension
14h 44m 13s
True Declination
0° 00' 00"
Sunlit
Object was in daylight at epoch
Visualization orbit readout
Latitude
Unknown
Longitude
Unknown
Altitude
Unknown
Speed
Unknown
Apparent Right ascension
Unknown
Apparent Declination
Unknown
Sunlit
N/A
Visualization observer readout
Local Sidereal Time
21:25:21
Azimuth
Unknown
Elevation
Unknown
Doppler factor
Unknown
Orbital elements
Apogee altitude
38,575.938 km
Perigee altitude
1,771.144 km
Semi-major axis
26,551.678 km
Eccentricity
0.69308
Inclination
63.1127°
RAAN
221.0467°
Arg. of periapsis
269.8654°
True anomaly
90.38283°
Mean anomaly
17.644°
Eccentric anomaly
46.40231°
Mean motion
0.50166 °/min
Orbital period
717.62 mins
BSTAR
0
Loading maneuver chart data...
Computing Atmospheric mass density...
Loading historical data...
Loading historical data...
Loading historical data...
Loading historical data...
Loading historical data...
Loading historical data...
Loading historical data...
Other satellites on launch #87 in the year 2021 (2021-09-27 UTC)

Documentation

Showing up to 5 results
|